Location: *
(58.4167°N, 22.5000°E)
Time: 16:03:16
(UTC+00:00)

Cosmos 1603 - Pass Details

Date: 22 September 2019
Orbit: 831 x 860 km, 71.0° (Epoch: 20 October)

Event Time Altitude Azimuth Distance (km) Brightness Sun altitude
Rises 17:24:48 0° 318° (NW) 3,403 7.9 -7.9°
Reaches altitude 10° 17:27:23 10° 325° (NW) 2,470 6.9 -8.2°
Maximum altitude 17:32:47 43° 37° (NE) 1,170 4.3 -8.9°
Enters shadow 17:37:47 12° 107° (ESE) 2,335 5.3 -9.5°
